Regional Weather Roundup
Issued by NWS

Home | Current Version | Previous Version | Graphics & Text | Print | Product List | Glossary On
Versions: 1 2 3 4 5 6 7 8 9 10 11 12 13 14 15 16 17 18 19 20 21 22 23 24 25 26 27 28 29 30 31 32 33 34 35 36 37 38 39 40 41 42 43 44 45 46 47 48 49 50
000
ASUS43 KFSD 241502
RWRSD

WEATHER ROUNDUP FOR SOUTH DAKOTA
NATIONAL WEATHER SERVICE SIOUX FALLS SD
1000 AM CDT MON JUL 24 2017

NOTE: "FAIR" INDICATES FEW OR NO CLOUDS BELOW 12,000 FEET WITH NO
SIGNIFICANT WEATHER AND/OR OBSTRUCTIONS TO VISIBILITY.


SDZ001>005-009-010-012>017-241600-
NORTHWEST AND NORTH CENTRAL SOUTH DAKOTA

CITY           SKY/WX    TMP DP  RH WIND       PRES   REMARKS
BUFFALO          N/A     75  59  57 S9        29.82F
FAITH            N/A     71  60  68 SE18      29.86F
MOBRIDGE       CLOUDY    71  61  70 E13       29.85F
$$

SDZ012>016-024>037-041>051-057-063-072>074-241600-
SOUTHWEST AND SOUTH CENTRAL SOUTH DAKOTA

CITY           SKY/WX    TMP DP  RH WIND       PRES   REMARKS
RAPID CTY ARPT SUNNY     80  55  42 SE5       29.89F
PIERRE         CLOUDY    78  58  49 SE15G25   29.87F
CUSTER         SUNNY     76  49  38 MISG      30.04F
ELLSWORTH AFB  SUNNY     80  55  41 SE5       29.89F
PHILIP         MOSUNNY   76  64  66 SE10G21   29.84R
PINE RIDGE     SUNNY     81  61  50 S16       29.92S
SPEARFISH      FAIR      77  57  50 CALM      29.94S
WINNER         FAIR      82  59  45 S15G22    29.97F
$$

SDZ004>011-016>023-039-040-241600-
NORTHEAST SOUTH DAKOTA

CITY           SKY/WX    TMP DP  RH WIND       PRES   REMARKS
ABERDEEN       CLOUDY    69  62  78 S13       29.97F
WATERTOWN      PTSUNNY   68  62  81 SE14      30.01F
BROOKINGS      SUNNY     70  61  73 S13       30.04F
SISSETON         N/A     72  63  73 S10       30.00S
$$

SDZ017-020-022-023-036>040-048>070-241600-
SOUTHEAST SOUTH DAKOTA

CITY           SKY/WX    TMP DP  RH WIND       PRES   REMARKS
SIOUX FALLS    PTSUNNY   72  63  73 S8        30.04S
HURON          PTSUNNY   70  61  73 SE15      29.98F
CHAMBERLAIN    SUNNY     80  64  57 SE14G21   29.95F
MITCHELL       SUNNY     74  62  66 SE12      29.99F
$$

ABBREVIATIONS USED IN REMARKS
   TC - TEMPERATURE IN CELSIUS
  WCI - WIND CHILL INDEX
   HX - HEAT INDEX
  VSB - VISIBILITY





USA.gov is the U.S. government's official web portal to all federal, state and local government web resources and services.